TOM100T EGNX-EGNX

Flight info

Callsign TOM100T
Flight time 0h 32m
Altitude 2000
Route CIRCUIT
Aircraft B738/M-V/N

Departure

Time 2026-05-04 18:46
Airport East Midlands Airport (EGNX)

Arrival

Time 2026-05-04 19:18
Airport East Midlands Airport (EGNX)
Time Latitude Longitude Altitude Speed Heading
2026-05-04 18:34 52.82719 -1.32858 296 ft 0 kts 179°
2026-05-04 18:38 52.82728 -1.32858 297 ft 2 kts 173°
2026-05-04 18:39 52.82744 -1.32862 298 ft 2 kts 169°
2026-05-04 18:39 52.82755 -1.32865 300 ft 2 kts 164°
2026-05-04 18:39 52.82775 -1.32879 302 ft 2 kts 144°
2026-05-04 18:39 52.82787 -1.32898 302 ft 2 kts 120°
2026-05-04 18:40 52.82791 -1.32915 300 ft 2 kts 104°
2026-05-04 18:40 52.82793 -1.32933 299 ft 2 kts 91°
2026-05-04 18:40 52.82793 -1.32959 299 ft 2 kts 86°
2026-05-04 18:40 52.82793 -1.32963 299 ft 0 kts 87°
2026-05-04 18:42 52.82793 -1.32952 299 ft 3 kts 87°
2026-05-04 18:42 52.82803 -1.32876 300 ft 9 kts 55°
2026-05-04 18:42 52.82858 -1.32858 301 ft 10 kts 359°
2026-05-04 18:42 52.82926 -1.32795 303 ft 15 kts 78°
2026-05-04 18:43 52.82935 -1.32580 298 ft 22 kts 88°
2026-05-04 18:43 52.82939 -1.32323 298 ft 22 kts 88°
2026-05-04 18:43 52.82944 -1.32068 295 ft 22 kts 88°
2026-05-04 18:43 52.82946 -1.31820 295 ft 21 kts 89°
2026-05-04 18:44 52.82951 -1.31578 292 ft 21 kts 88°
2026-05-04 18:44 52.82953 -1.31496 292 ft 20 kts 88°
2026-05-04 18:44 52.83070 -1.31321 293 ft 15 kts 358°
2026-05-04 18:44 52.83124 -1.31390 296 ft 9 kts 281°
2026-05-04 18:45 52.83124 -1.31417 296 ft 0 kts 269°
2026-05-04 18:45 52.83123 -1.31565 299 ft 47 kts 269°
2026-05-04 18:46 52.83112 -1.32150 301 ft 106 kts 268°
2026-05-04 18:46 52.83083 -1.33751 487 ft 157 kts 269°
2026-05-04 18:46 52.83057 -1.35516 1469 ft 154 kts 269°
2026-05-04 18:46 52.83009 -1.37401 1908 ft 169 kts 268°
2026-05-04 18:47 52.82960 -1.39371 1969 ft 170 kts 274°
2026-05-04 18:47 52.83434 -1.41106 2008 ft 177 kts 321°
2026-05-04 18:47 52.84611 -1.41709 2024 ft 183 kts 359°
2026-05-04 18:47 52.85890 -1.41735 2011 ft 184 kts 358°
2026-05-04 18:48 52.87164 -1.41764 1999 ft 183 kts
2026-05-04 18:48 52.88275 -1.40874 2003 ft 182 kts 51°
2026-05-04 18:48 52.88622 -1.38900 2017 ft 182 kts 89°
2026-05-04 18:48 52.88623 -1.36792 2005 ft 184 kts 88°
2026-05-04 18:49 52.88636 -1.34670 2001 ft 185 kts 88°
2026-05-04 18:49 52.88651 -1.32533 1994 ft 185 kts 88°
2026-05-04 18:49 52.88666 -1.30401 1994 ft 185 kts 88°
2026-05-04 18:49 52.88681 -1.28289 1997 ft 186 kts 88°
2026-05-04 18:50 52.88696 -1.26127 2019 ft 185 kts 88°
2026-05-04 18:50 52.88709 -1.24000 2085 ft 185 kts 88°
2026-05-04 18:50 52.88707 -1.21938 2060 ft 177 kts 94°
2026-05-04 18:50 52.88167 -1.20238 1906 ft 169 kts 148°
2026-05-04 18:51 52.87027 -1.19818 1699 ft 171 kts 178°
2026-05-04 18:51 52.85838 -1.19763 1640 ft 167 kts 179°
2026-05-04 18:51 52.84714 -1.19716 1585 ft 156 kts 179°
2026-05-04 18:51 52.83711 -1.19984 1615 ft 145 kts 212°
2026-05-04 18:52 52.83187 -1.21368 1447 ft 149 kts 270°
2026-05-04 18:52 52.83260 -1.23144 1304 ft 159 kts 272°
2026-05-04 18:52 52.83241 -1.24921 1091 ft 150 kts 268°
2026-05-04 18:52 52.83211 -1.26635 850 ft 149 kts 270°
2026-05-04 18:53 52.83182 -1.28378 615 ft 151 kts 268°
2026-05-04 18:53 52.83149 -1.30082 398 ft 148 kts 268°
2026-05-04 18:53 52.83119 -1.31723 302 ft 134 kts 268°
2026-05-04 18:53 52.83091 -1.33378 387 ft 173 kts 268°
2026-05-04 18:54 52.83060 -1.35469 1264 ft 180 kts 269°
2026-05-04 18:54 52.83050 -1.37439 1791 ft 171 kts 272°
2026-05-04 18:54 52.83337 -1.39391 2000 ft 185 kts 302°
2026-05-04 18:54 52.84356 -1.40694 2024 ft 193 kts 344°
2026-05-04 18:55 52.85682 -1.40915 2148 ft 196 kts 357°
2026-05-04 18:55 52.88209 -1.39943 2023 ft 188 kts 51°
2026-05-04 18:55 52.88547 -1.37938 2021 ft 182 kts 89°
2026-05-04 18:56 52.88549 -1.35839 2009 ft 183 kts 88°
2026-05-04 18:56 52.88563 -1.33713 2001 ft 186 kts 88°
2026-05-04 18:56 52.88578 -1.31566 2000 ft 186 kts 88°
2026-05-04 18:56 52.88593 -1.29424 1994 ft 186 kts 88°
2026-05-04 18:57 52.88607 -1.27282 2000 ft 186 kts 88°
2026-05-04 18:57 52.88621 -1.25139 1993 ft 186 kts 88°
2026-05-04 18:57 52.88588 -1.23017 1964 ft 185 kts 101°
2026-05-04 18:57 52.87888 -1.21290 1916 ft 181 kts 147°
2026-05-04 18:58 52.86730 -1.20763 1937 ft 171 kts 176°
2026-05-04 18:58 52.85546 -1.20658 1841 ft 171 kts 178°
2026-05-04 18:58 52.84386 -1.20832 1691 ft 168 kts 198°
2026-05-04 18:58 52.83478 -1.21991 1531 ft 166 kts 236°
2026-05-04 18:59 52.83229 -1.23784 1244 ft 163 kts 272°
2026-05-04 18:59 52.83249 -1.25631 1006 ft 157 kts 272°
2026-05-04 18:59 52.83203 -1.27423 723 ft 156 kts 266°
2026-05-04 18:59 52.83163 -1.29168 491 ft 151 kts 269°
2026-05-04 19:00 52.83134 -1.30864 313 ft 143 kts 269°
2026-05-04 19:00 52.83107 -1.32415 299 ft 126 kts 268°
2026-05-04 19:00 52.83077 -1.34073 687 ft 149 kts 268°
2026-05-04 19:00 52.83050 -1.35844 1380 ft 157 kts 275°
2026-05-04 19:01 52.83489 -1.37487 1537 ft 165 kts 319°
2026-05-04 19:01 52.84549 -1.38153 1898 ft 166 kts 355°
2026-05-04 19:01 52.85760 -1.38248 1996 ft 186 kts 358°
2026-05-04 19:01 52.87065 -1.38201 2006 ft 189 kts 13°
2026-05-04 19:02 52.88050 -1.36928 1998 ft 184 kts 63°
2026-05-04 19:02 52.88222 -1.34861 2017 ft 184 kts 89°
2026-05-04 19:02 52.88227 -1.32728 2000 ft 187 kts 88°
2026-05-04 19:02 52.88240 -1.30579 1998 ft 187 kts 88°
2026-05-04 19:03 52.88253 -1.28428 2000 ft 187 kts 88°
2026-05-04 19:03 52.88265 -1.26280 2006 ft 187 kts 88°
2026-05-04 19:03 52.88278 -1.24124 1997 ft 186 kts 89°
2026-05-04 19:03 52.87997 -1.22079 2024 ft 185 kts 120°
2026-05-04 19:04 52.87036 -1.20808 2075 ft 178 kts 161°
2026-05-04 19:04 52.85844 -1.20568 1904 ft 170 kts 183°
2026-05-04 19:04 52.84686 -1.20700 1786 ft 164 kts 184°
2026-05-04 19:04 52.83642 -1.21317 1712 ft 163 kts 230°
2026-05-04 19:05 52.83244 -1.23075 1400 ft 173 kts 271°
2026-05-04 19:05 52.83235 -1.25006 1082 ft 164 kts 269°
2026-05-04 19:05 52.83196 -1.26821 854 ft 153 kts 269°
2026-05-04 19:05 52.83176 -1.28564 587 ft 149 kts 269°
2026-05-04 19:06 52.83144 -1.30290 382 ft 149 kts 268°
2026-05-04 19:06 52.83115 -1.31928 299 ft 133 kts 268°
2026-05-04 19:06 52.83084 -1.33576 365 ft 165 kts 268°
2026-05-04 19:06 52.83066 -1.35337 1192 ft 137 kts 270°
2026-05-04 19:07 52.83060 -1.37063 1622 ft 166 kts 271°
2026-05-04 19:07 52.83103 -1.39064 2123 ft 185 kts 278°
2026-05-04 19:07 52.83761 -1.40779 2020 ft 182 kts 328°
2026-05-04 19:07 52.84987 -1.41275 2020 ft 180 kts 353°
2026-05-04 19:08 52.86242 -1.41437 1991 ft 182 kts
2026-05-04 19:08 52.87280 -1.40354 2003 ft 182 kts 57°
2026-05-04 19:08 52.87529 -1.38325 2020 ft 183 kts 89°
2026-05-04 19:08 52.87536 -1.36209 2013 ft 185 kts 88°
2026-05-04 19:09 52.87550 -1.34101 2002 ft 186 kts 88°
2026-05-04 19:09 52.87563 -1.31945 1994 ft 187 kts 88°
2026-05-04 19:09 52.87577 -1.29788 1991 ft 187 kts 88°
2026-05-04 19:09 52.87591 -1.27633 1993 ft 187 kts 88°
2026-05-04 19:10 52.87605 -1.25476 2000 ft 187 kts 88°
2026-05-04 19:10 52.87633 -1.23321 1995 ft 187 kts 87°
2026-05-04 19:10 52.87666 -1.21163 2006 ft 187 kts 87°
2026-05-04 19:10 52.87700 -1.19001 1993 ft 188 kts 87°
2026-05-04 19:11 52.87735 -1.16842 1988 ft 187 kts 87°
2026-05-04 19:11 52.87695 -1.14704 1971 ft 185 kts 106°
2026-05-04 19:11 52.86961 -1.13127 2004 ft 166 kts 140°
2026-05-04 19:11 52.86120 -1.11934 1983 ft 158 kts 143°
2026-05-04 19:12 52.85114 -1.11426 1996 ft 152 kts 191°
2026-05-04 19:12 52.83130 -1.11137 2012 ft 158 kts 122°
2026-05-04 19:12 52.83002 -1.09424 2001 ft 154 kts 64°
2026-05-04 19:13 52.83789 -1.08375 2004 ft 150 kts
2026-05-04 19:13 52.84726 -1.08956 2004 ft 151 kts 308°
2026-05-04 19:13 52.84922 -1.10609 2021 ft 152 kts 260°
2026-05-04 19:13 52.84990 -1.12275 1966 ft 143 kts 308°
2026-05-04 19:14 52.85851 -1.12956 2008 ft 146 kts
2026-05-04 19:14 52.86641 -1.12034 2002 ft 150 kts 65°
2026-05-04 19:14 52.86553 -1.10360 2002 ft 152 kts 126°
2026-05-04 19:14 52.85658 -1.09635 1990 ft 151 kts 186°
2026-05-04 19:15 52.84816 -1.10534 2008 ft 147 kts 241°
2026-05-04 19:15 52.84343 -1.12031 2001 ft 151 kts 245°
2026-05-04 19:15 52.83901 -1.13591 1993 ft 148 kts 247°
2026-05-04 19:15 52.83620 -1.15179 1995 ft 142 kts 263°
2026-05-04 19:16 52.83477 -1.16804 1988 ft 144 kts 263°
2026-05-04 19:16 52.83383 -1.18478 1834 ft 147 kts 268°
2026-05-04 19:16 52.83340 -1.20154 1631 ft 145 kts 269°
2026-05-04 19:16 52.83307 -1.21804 1421 ft 142 kts 269°
2026-05-04 19:17 52.83284 -1.23431 1219 ft 142 kts 270°
2026-05-04 19:17 52.83264 -1.25091 1037 ft 149 kts 269°
2026-05-04 19:17 52.83218 -1.26819 832 ft 155 kts 267°
2026-05-04 19:17 52.83170 -1.28638 570 ft 154 kts 269°
2026-05-04 19:18 52.83141 -1.30360 373 ft 146 kts 268°
2026-05-04 19:18 52.83115 -1.31968 299 ft 127 kts 268°
2026-05-04 19:18 52.83093 -1.33112 308 ft 74 kts 267°
2026-05-04 19:18 52.83079 -1.33688 312 ft 22 kts 254°
2026-05-04 19:19 52.83024 -1.33730 310 ft 0 kts 180°
2026-05-04 19:19 52.83012 -1.33731 310 ft 5 kts 180°
2026-05-04 19:19 52.82945 -1.33725 309 ft 12 kts 166°
2026-05-04 19:19 52.82917 -1.33585 308 ft 15 kts 87°
2026-05-04 19:20 52.82919 -1.33414 309 ft 15 kts 89°
2026-05-04 19:20 52.82921 -1.33238 306 ft 17 kts 88°
2026-05-04 19:20 52.82925 -1.33035 302 ft 17 kts 88°
2026-05-04 19:20 52.82907 -1.32869 303 ft 15 kts 146°
2026-05-04 19:21 52.82818 -1.32864 299 ft 12 kts 197°
2026-05-04 19:21 52.82737 -1.32859 297 ft 8 kts 179°
2026-05-04 19:21 52.82719 -1.32858 297 ft 0 kts 179°